{"data":{"norad_id":58259,"epoch":"2026-09-19T11:23:07.816992Z","epoch_age_seconds":103035,"freshness":"FRESH","line1":"1 58259U 23174D   26262.47439603  .00013968  00000+0  28848-3 0  9999","line2":"2 58259  97.3797 348.6768 0006619 177.6369 182.4913 15.45937503159911","mean_motion":15.45937503,"eccentricity":0.0006619,"inclination_deg":97.3797,"raan_deg":348.6768,"arg_perigee_deg":177.6369,"mean_anomaly_deg":182.4913,"bstar":0.00028848,"rev_number":15991,"period_min":93.14736185684,"perigee_km":424.11940168132,"apogee_km":433.13019294861,"semimajor_km":6806.761797315,"source":"CELESTRAK","updated_at":"2026-09-20T09:00:34.869612Z"}}